TimeCDT,TemperatureF,Dew PointF,Humidity,Sea Level PressureIn,VisibilityMPH,Wind Direction,Wind SpeedMPH,Gust SpeedMPH,PrecipitationIn,Events,Conditions,WindDirDegrees,DateUTC
12:52 AM,45.0,28.9,53,30.25,10.0,SSE,6.9,-,N/A,,Clear,150,2012-10-13 05:52:00
5:52 AM,46.0,39.0,76,30.12,10.0,South,10.4,-,0.00,,Overcast,170,2012-10-13 10:52:00
7:52 AM,50.0,43.0,77,30.09,10.0,South,8.1,-,N/A,,Overcast,180,2012-10-13 12:52:00
9:52 AM,54.0,46.9,77,30.03,10.0,South,15.0,-,N/A,,Overcast,180,2012-10-13 14:52:00
10:05 AM,53.6,48.2,82,30.03,10.0,South,11.5,-,0.00,Rain,Light Rain,190,2012-10-13 15:05:00
10:50 AM,51.8,48.2,88,30.01,5.0,South,13.8,-,0.03,Rain,Light Rain,180,2012-10-13 15:50:00
10:52 AM,52.0,50.0,93,30.02,5.0,South,12.7,-,0.03,Rain,Light Rain,180,2012-10-13 15:52:00
11:26 AM,51.8,50.0,94,29.99,2.5,South,12.7,-,0.05,Rain,Rain,180,2012-10-13 16:26:00
11:38 AM,51.8,51.8,100,29.98,3.0,South,12.7,-,0.06,Rain,Light Rain,190,2012-10-13 16:38:00
11:52 AM,53.1,51.1,93,29.98,2.5,South,11.5,-,0.07,Rain,Light Rain,180,2012-10-13 16:52:00
12:12 PM,53.6,51.8,94,29.96,3.0,South,12.7,-,0.02,Rain,Light Rain,180,2012-10-13 17:12:00
12:52 PM,54.0,53.1,97,29.92,4.0,South,13.8,-,0.04,Rain,Light Rain,180,2012-10-13 17:52:00
1:52 PM,57.0,55.9,96,29.89,5.0,South,15.0,-,0.01,Rain,Light Rain,190,2012-10-13 18:52:00
2:52 PM,59.0,57.9,96,29.87,7.0,SSW,12.7,-,0.00,,Overcast,200,2012-10-13 19:52:00
3:52 PM,61.0,59.0,93,29.85,3.0,South,15.0,21.9,0.01,,Overcast,190,2012-10-13 20:52:00
4:52 PM,62.1,60.1,93,29.85,5.0,SSW,12.7,21.9,0.00,,Overcast,200,2012-10-13 21:52:00
5:23 PM,62.6,60.8,94,29.82,2.5,South,15.0,20.7,0.02,Rain,Light Rain,190,2012-10-13 22:23:00
5:33 PM,62.6,60.8,94,29.82,3.0,South,11.5,-,0.02,Rain,Light Rain,190,2012-10-13 22:33:00
5:52 PM,62.1,61.0,96,29.85,3.0,SSW,10.4,17.3,0.02,,Overcast,200,2012-10-13 22:52:00
7:27 PM,62.6,60.8,94,29.84,4.0,South,9.2,-,N/A,,Overcast,190,2012-10-14 00:27:00
8:04 PM,62.6,62.6,100,29.84,4.0,SSW,6.9,-,N/A,,Overcast,200,2012-10-14 01:04:00
8:29 PM,62.6,62.6,100,29.83,4.0,South,10.4,-,N/A,,Overcast,190,2012-10-14 01:29:00
9:52 PM,63.0,62.1,97,29.81,4.0,South,10.4,-,N/A,,Clear,180,2012-10-14 02:52:00
10:52 PM,64.0,62.1,93,29.79,5.0,South,8.1,-,N/A,,Scattered Clouds,190,2012-10-14 03:52:00